Location: A�t Bou Chrif
(32.7193°N, 5.2385°W)
Time: 04:19:22
(UTC+00:00)

ATLAS 5 CENTAUR R/B - Pass Details

Date: 08 August 2020
Orbit: 533 x 1125 km, 63.4° (Epoch: 19 September)

Event Time Altitude Azimuth Distance (km) Brightness Sun altitude
Rises 22:31:19 0° 311° (NW) 3,536 6.4 -34.2°
Reaches altitude 10° 22:34:16 10° 297° (WNW) 2,688 5.4 -34.6°
Enters shadow 22:38:49 22° 252° (WSW) 2,056 4.2 -35.1°
